This is the latest recevied weather packets stored in our database for station/object GCEMA. If no packets are shown the sender has not sent any weather packets the latest 10 day(s).
| Time | Temp. | Humidity | Pressure | Rain* | Wind** | Luminosity | Snow |
|---|---|---|---|---|---|---|---|
| 1777452324 | 15.56° C | - | 1008.2 hPa | 0 mm | 0 m/s | - | - |
| 1777452145 | 16.67° C | - | 1008.2 hPa | 0 mm | 0 m/s | - | - |
| 1777451783 | 16.11° C | - | 1008.3 hPa | 0 mm | 0 m/s | - | - |
| 1777451603 | 16.11° C | - | 1008.3 hPa | 0 mm | 0 m/s | - | - |
| 1777451424 | 17.22° C | - | 1008.3 hPa | 0 mm | 0 m/s | - | - |
| 1777451244 | 16.67° C | - | 1008.3 hPa | 0 mm | 0 m/s | - | - |
| 1777451062 | 17.22° C | - | 1008.3 hPa | 0 mm | 0 m/s | - | - |
| 1777450702 | 16.67° C | - | 1008.2 hPa | 0 mm | 0 m/s | - | - |
| 1777450523 | 17.78° C | - | 1008.1 hPa | 0 mm | 0 m/s | - | - |
| 1777450343 | 17.78° C | - | 1008.1 hPa | 0 mm | 0 m/s | - | - |
| 1777450161 | 17.78° C | - | 1008.1 hPa | 0 mm | 0 m/s | - | - |
| 1777449981 | 17.78° C | - | 1008.1 hPa | 0 mm | 0 m/s | - | - |
| 1777449802 | 17.78° C | - | 1008 hPa | 0 mm | 0 m/s | - | - |
| 1777449622 | 17.78° C | - | 1008 hPa | 0 mm | 0 m/s | - | - |
| 1777448900 | 18.33° C | - | 1008 hPa | 0 mm | 0 m/s | - | - |
| 1777448721 | 17.22° C | - | 1008.1 hPa | 0 mm | 0 m/s | - | - |
| 1777448541 | 18.33° C | - | 1008 hPa | 0 mm | 0 m/s | - | - |
| 1777448180 | 17.78° C | - | 1008.2 hPa | 0 mm | 0 m/s | - | - |
| 1777448000 | 18.33° C | - | 1008.1 hPa | 0 mm | 0 m/s | - | - |
| 1777447820 | 17.78° C | - | 1008.1 hPa | 0 mm | 0 m/s | - | - |
| 1777447640 | 16.67° C | - | 1008.2 hPa | 0 mm | 0 m/s | - | - |
| 1777447458 | 18.33° C | - | 1008.2 hPa | 0 mm | 0 m/s | - | - |
| 1777447278 | 18.33° C | - | 1008.2 hPa | 0 mm | 0 m/s | - | - |
| 1777447099 | 18.33° C | - | 1008.2 hPa | 0 mm | 0 m/s | - | - |
| 1777446919 | 17.22° C | - | 1008.2 hPa | 0 mm | 0 m/s | - | - |
* Rain latest hour (hover to see other rain measurements)
** Current wind speed in m/s (hover to see current wind gust speed)